Wind_Speed
21 20 21 20 19 17 17 17 17 16 15 14 15 16 16 16 17 17 17 17 17 17 17 16 17 17 17 18 18 19 19 19 19 19 19 19 19 19 19 20 20 20 20 20
21 21 22 22 20 18 18 17 17 17 17 17 18 19 18 19 18 18 18 18 19 18 19 19 19 19 19 20 20 20 20 20 20 21 22 21 21 21 21 21 21 22 22 22
23 22 22 23 21 19 18 17 18 18 18 19 20 20 20 20 19 19 19 20 21 21 21 21 21 21 21 21 22 22 21 22 22 22 23 23 23 23 23 23 22 23 24 24
24 23 24 22 21 21 20 19 19 19 19 20 21 22 22 21 20 21 21 22 23 23 23 24 24 24 24 23 24 24 24 24 24 25 25 24 24 25 25 25 25 25 25 26
26 25 24 23 22 22 23 22 21 21 20 20 21 22 21 20 21 23 23 23 24 24 25 26 26 26 26 26 26 26 26 26 26 26 26 26 26 26 26 26 27 27 26 26
27 27 26 23 23 24 24 24 23 23 22 23 22 23 23 23 24 25 26 26 27 27 27 27 28 28 28 28 28 27 27 27 27 28 27 27 27 27 27 28 27 28 28 28
28 28 27 25 24 24 26 26 25 24 23 24 25 25 26 26 27 27 27 28 29 29 30 29 29 29 29 29 28 28 28 28 28 28 28 28 28 28 29 29 29 30 30 30
29 29 28 27 26 27 26 26 27 26 26 26 27 27 27 28 28 29 29 30 30 31 31 31 31 31 30 29 29 29 29 29 29 29 29 30 30 30 31 31 31 31 31 30
29 29 28 28 28 28 28 28 27 28 28 28 28 29 28 29 29 30 30 31 31 32 32 32 32 32 32 31 31 30 30 30 29 29 30 31 31 31 32 32 33 32 31 31
29 29 29 28 29 29 29 28 27 28 28 28 28 29 29 29 30 30 30 30 31 32 32 32 32 32 33 33 32 32 31 31 31 30 30 31 31 31 31 32 32 32 32 31
29 29 29 29 30 30 30 29 28 28 28 28 29 29 29 30 31 32 32 32 32 32 32 31 31 32 33 33 32 32 32 31 31 31 31 31 31 32 32 32 32 32 31 31
28 28 29 30 31 31 30 29 29 30 29 30 31 31 31 31 31 32 32 32 31 31 30 31 31 31 32 32 31 31 32 32 32 32 31 31 31 31 31 31 32 32 33 33
30 30 29 29 29 29 30 31 31 31 32 32 32 32 32 32 32 32 32 32 32 32 32 32 32 32 32 32 31 31 32 32 32 32 32 31 31 30 30 30 31 32 33 34
30 30 30 29 30 31 31 32 33 33 33 33 33 33 32 32 32 33 33 33 33 32 32 33 33 33 33 33 32 32 32 33 33 32 32 31 31 30 30 30 31 32 32 32
30 30 30 31 31 32 32 33 33 33 32 32 32 32 32 32 32 32 33 33 32 32 32 32 33 33 33 33 33 33 33 33 33 33 32 31 30 30 31 31 31 31 31 31
30 30 31 31 32 32 33 33 34 33 33 32 32 32 33 32 32 32 32 33 33 33 33 33 32 32 32 32 33 33 33 32 32 32 31 31 31 31 31 30 30 30 30 30
31 31 31 31 32 33 33 34 34 34 34 33 32 32 32 32 32 32 32 32 33 33 33 33 32 32 32 32 32 32 32 32 32 31 31 31 31 31 31 30 29 29 29 29
29 29 30 31 31 31 31 32 32 32 31 31 30 30 31 31 31 31 31 32 32 32 33 33 32 32 32 32 32 32 31 31 31 31 31 31 31 30 30 30 29 29 28 27
27 28 28 28 29 29 29 29 29 29 29 29 29 29 29 30 30 30 30 31 31 31 31 32 32 31 31 31 31 31 30 30 31 31 31 31 31 31 30 30 30 29 29 27
24 25 26 26 27 28 28 28 28 28 27 27 28 28 28 29 29 30 30 30 31 31 30 30 31 31 30 30 29 29 29 29 30 30 30 30 30 30 30 30 29 28 28 28
22 23 24 25 25 25 26 26 26 26 27 27 26 26 27 27 28 28 29 30 30 30 30 30 30 30 30 30 29 29 29 29 29 29 29 29 29 29 29 28 28 28 28 28
20 21 21 22 23 23 24 24 24 25 25 25 26 26 27 27 27 28 28 29 28 28 29 29 29 29 29 29 30 30 30 29 29 28 28 28 28 28 28 27 27 27 28 28
20 20 21 21 21 22 22 23 24 24 25 26 26 26 27 27 27 27 27 27 28 28 29 29 29 29 29 30 30 30 30 29 29 28 27 27 26 26 26 26 26 26 27 27
20 20 20 21 21 21 21 22 23 24 24 25 25 26 26 26 26 26 26 26 27 27 27 28 28 28 28 28 28 28 28 27 26 25 25 25 25 26 26 26 26 26 26 27
20 21 21 21 21 22 22 23 23 24 25 25 25 25 26 26 26 26 26 27 27 27 27 27 27 27 27 27 26 26 25 25 24 24 24 24 24 24 24 25 25 26 26 27
20 20 20 21 21 22 23 23 24 24 24 24 25 25 25 25 25 26 26 26 26 26 26 26 26 26 26 25 24 23 23 24 24 24 23 23 23 24 24 24 24 24 25 25
20 21 21 22 23 23 23 24 24 23 23 23 24 24 23 23 23 24 24 24 24 24 25 25 25 25 24 23 22 22 22 22 21 21 21 21 22 23 23 23 23 24 24 24
Wind_Direction
241 240 238 239 241 243 248 252 257 260 261 263 267 269 275 279 283 288 290 293 297 299 301 297 296 299 301 303 302 302 301 299 296 292 291 290 289 291 293 294 295 297 299 301
241 240 241 243 243 243 246 250 253 257 259 264 268 271 272 275 279 284 288 290 292 293 297 295 296 297 298 299 299 299 298 296 294 293 293 291 289 290 292 294 293 293 294 297
240 239 243 246 246 246 247 247 253 256 260 262 265 268 272 275 277 281 285 288 289 291 293 294 295 297 297 298 298 297 295 294 293 291 290 290 289 289 289 290 294 293 291 292
241 243 245 246 245 247 249 251 254 258 261 263 264 267 271 274 274 279 284 287 288 289 290 292 293 295 297 296 296 295 294 293 291 290 289 287 287 288 287 289 291 292 292 292
245 247 248 247 249 251 251 255 258 262 263 264 264 267 271 273 275 278 282 284 285 288 289 291 292 292 293 293 294 293 292 292 291 289 287 286 286 286 286 288 290 291 291 291
246 249 250 250 251 253 254 256 259 262 265 265 267 270 271 272 274 278 281 284 287 290 290 291 292 292 292 293 293 292 291 291 291 290 287 285 284 284 284 285 287 288 289 289
247 250 252 252 252 254 255 257 260 262 265 268 269 270 270 271 273 277 280 283 286 288 289 290 291 292 293 292 292 291 290 290 290 288 287 285 283 283 283 284 285 286 287 288
249 251 253 254 255 256 258 259 260 264 268 270 271 272 272 272 273 275 279 281 283 286 287 288 289 290 290 290 290 290 290 291 289 287 285 284 283 283 283 283 284 285 286 288
250 252 254 256 257 259 260 262 263 266 270 271 271 271 272 273 276 278 280 281 283 285 286 285 285 286 288 288 288 289 290 289 288 287 285 284 284 283 284 283 282 283 286 288
249 251 253 255 257 259 261 262 265 268 269 270 270 270 271 272 275 278 281 283 284 285 285 285 285 286 288 288 288 288 289 289 286 286 286 285 284 283 284 284 283 283 285 288
251 253 254 254 257 259 262 262 265 266 267 268 268 269 270 273 276 279 281 283 284 285 286 287 287 287 288 288 288 288 288 289 287 285 286 287 286 285 284 284 284 286 287 287
254 255 256 256 257 260 261 263 264 266 266 268 269 270 272 274 276 278 281 283 285 285 285 286 287 288 288 288 288 287 287 288 287 287 286 286 286 285 285 285 285 285 286 286
254 255 257 259 260 262 263 264 266 267 267 269 271 272 273 275 277 279 281 282 283 283 284 286 287 287 288 289 288 288 288 288 287 287 287 286 286 285 286 287 287 286 286 287
254 257 259 261 263 265 266 267 269 270 270 270 271 272 274 276 278 279 280 282 284 284 285 287 288 288 288 288 288 288 288 287 286 286 286 287 288 288 289 291 290 289 289 290
255 259 261 262 264 266 268 270 271 272 273 273 273 273 275 276 277 278 279 281 283 284 286 288 288 288 288 287 286 287 287 286 284 284 285 287 288 288 289 291 291 291 292 293
257 260 261 262 264 266 269 271 273 275 275 274 272 272 274 275 277 277 278 279 282 283 285 287 287 287 288 288 289 287 286 285 284 283 285 286 287 287 288 289 290 291 293 293
259 261 262 262 263 266 269 271 273 275 276 276 275 274 274 275 276 277 277 279 282 283 285 287 286 287 288 288 288 288 286 286 286 285 286 287 287 288 288 288 289 290 291 293
259 260 260 261 263 267 270 271 273 275 276 275 274 274 274 275 276 277 277 280 282 284 284 286 287 288 288 288 288 288 287 287 286 286 287 287 287 287 287 287 287 289 290 291
259 260 261 263 264 267 270 272 274 276 276 275 274 273 273 274 276 277 279 281 283 284 284 284 286 288 289 288 287 286 285 285 286 286 287 287 285 286 287 286 287 288 289 288
261 264 265 266 267 269 270 272 274 275 275 276 276 275 275 275 276 278 280 283 286 287 288 288 288 288 289 289 288 287 286 287 287 286 286 286 286 285 286 286 287 288 288 287
262 264 266 268 269 270 271 272 272 273 275 276 276 277 277 278 278 279 281 283 284 286 288 288 289 288 289 289 289 289 289 288 288 287 286 287 286 285 284 284 285 286 287 287
265 267 268 269 270 272 273 273 273 274 275 278 279 280 280 281 281 282 282 284 284 285 287 289 290 291 291 290 290 289 289 288 287 287 286 287 286 285 286 287 288 287 288 289
270 270 271 271 273 274 275 275 275 276 277 279 279 280 282 282 283 284 285 286 287 287 288 289 290 291 292 291 291 290 289 288 287 286 285 285 284 285 286 287 288 289 288 289
271 272 272 273 275 276 277 277 278 278 278 279 280 280 281 282 283 285 286 287 288 289 289 290 291 292 294 294 292 291 289 289 289 289 288 286 287 286 286 288 288 288 289 290
272 273 275 276 278 279 280 280 279 280 280 280 281 281 282 283 284 285 287 288 289 290 291 292 293 294 296 296 294 291 290 290 289 288 288 287 288 288 288 289 289 290 289 288
274 275 277 278 279 280 281 281 281 282 280 279 280 282 284 284 285 287 289 291 290 291 292 293 294 295 296 296 295 293 292 291 290 289 288 287 287 289 291 292 290 290 290 290
275 276 277 278 279 280 280 280 281 281 280 280 281 282 283 284 286 288 290 291 293 293 293 293 294 295 295 295 294 293 292 292 291 290 289 289 289 291 292 293 292 292 292 292
Height
5887 5889 5891 5892 5893 5894 5895 5895 5895 5896 5897 5897 5897 5898 5898 5897 5897 5896 5896 5895 5894 5893 5892 5891 5890 5889 5887 5886 5884 5882 5880 5879 5877 5875 5874 5872 5871 5869 5867 5865 5863 5861 5859 5857
5883 5885 5886 5887 5888 5889 5890 5890 5891 5892 5893 5893 5893 5894 5894 5893 5893 5892 5891 5891 5890 5889 5888 5887 5886 5884 5882 5881 5879 5877 5875 5873 5872 5870 5868 5866 5865 5863 5861 5859 5858 5856 5853 5851
5878 5880 5881 5882 5884 5885 5885 5886 5887 5887 5889 5889 5889 5889 5889 5889 5888 5887 5887 5886 5885 5884 5884 5882 5881 5879 5877 5875 5873 5871 5869 5868 5866 5864 5862 5860 5858 5857 5855 5853 5851 5849 5847 5845
5873 5875 5876 5880 5879 5880 5880 5881 5882 5882 5883 5883 5884 5884 5883 5883 5883 5882 5881 5880 5879 5878 5878 5876 5875 5873 5871 5869 5867 5865 5863 5861 5859 5858 5856 5854 5852 5850 5849 5847 5845 5843 5840 5838
5867 5868 5870 5873 5874 5874 5875 5876 5877 5877 5877 5877 5878 5877 5877 5877 5876 5876 5875 5874 5873 5872 5871 5870 5868 5867 5865 5862 5860 5858 5857 5855 5853 5851 5848 5846 5845 5843 5841 5840 5838 5835 5833 5831
5861 5862 5864 5868 5868 5869 5871 5870 5871 5871 5871 5871 5871 5872 5872 5871 5870 5870 5869 5868 5866 5865 5864 5862 5861 5859 5857 5855 5853 5851 5849 5847 5845 5843 5841 5839 5837 5835 5834 5832 5830 5828 5825 5823
5854 5855 5857 5860 5862 5863 5864 5865 5865 5865 5865 5865 5865 5865 5865 5865 5864 5863 5861 5860 5859 5858 5856 5855 5853 5852 5850 5848 5846 5844 5841 5839 5837 5835 5833 5831 5829 5827 5826 5823 5821 5819 5817 5815
5847 5849 5852 5853 5854 5855 5856 5857 5858 5858 5858 5859 5858 5857 5857 5856 5855 5855 5854 5853 5851 5850 5848 5847 5845 5843 5841 5840 5837 5835 5833 5831 5829 5827 5824 5822 5821 5819 5817 5815 5812 5810 5808 5806
5841 5843 5844 5845 5846 5847 5848 5849 5850 5851 5851 5851 5850 5849 5848 5848 5847 5846 5845 5844 5843 5841 5840 5838 5836 5834 5832 5830 5828 5826 5824 5822 5820 5818 5815 5813 5811 5809 5807 5805 5803 5801 5799 5797
5833 5834 5836 5837 5838 5839 5840 5842 5842 5843 5843 5843 5842 5841 5840 5840 5839 5838 5837 5836 5835 5833 5830 5828 5826 5824 5822 5820 5818 5817 5815 5813 5811 5809 5807 5804 5802 5800 5797 5795 5793 5791 5790 5788
5826 5827 5828 5830 5831 5832 5833 5834 5834 5835 5834 5834 5834 5833 5832 5832 5831 5830 5829 5827 5826 5824 5821 5819 5817 5815 5813 5811 5809 5807 5806 5804 5802 5799 5797 5795 5793 5791 5788 5786 5784 5782 5781 5779
5819 5820 5821 5823 5823 5824 5825 5826 5826 5826 5826 5825 5825 5825 5824 5823 5822 5821 5820 5819 5817 5815 5813 5811 5809 5807 5804 5802 5800 5798 5796 5794 5792 5790 5788 5786 5783 5781 5779 5777 5775 5773 5771 5769
5812 5812 5813 5814 5815 5816 5817 5817 5817 5817 5817 5817 5816 5815 5815 5814 5813 5812 5811 5809 5808 5806 5805 5803 5800 5798 5796 5794 5791 5789 5787 5785 5783 5781 5778 5776 5774 5772 5770 5768 5765 5763 5761 5759
5804 5804 5805 5806 5807 5808 5807 5808 5808 5808 5808 5807 5807 5806 5806 5805 5804 5803 5802 5800 5799 5797 5795 5793 5791 5789 5787 5785 5783 5781 5778 5776 5774 5771 5769 5767 5765 5763 5761 5759 5756 5754 5751 5749
5796 5797 5797 5798 5798 5798 5799 5799 5799 5799 5798 5798 5797 5797 5796 5796 5795 5794 5793 5791 5790 5788 5786 5784 5782 5780 5778 5775 5773 5771 5769 5766 5764 5762 5760 5758 5756 5754 5752 5749 5747 5744 5742 5740
5787 5788 5789 5789 5790 5790 5790 5789 5789 5789 5789 5788 5788 5787 5787 5786 5786 5785 5783 5782 5780 5779 5777 5775 5773 5771 5768 5766 5764 5761 5759 5757 5754 5752 5750 5748 5747 5745 5742 5740 5738 5736 5733 5731
5779 5779 5780 5781 5781 5781 5781 5781 5780 5780 5779 5778 5778 5777 5777 5776 5776 5775 5774 5772 5771 5769 5767 5766 5763 5761 5759 5757 5754 5752 5750 5747 5745 5743 5741 5739 5737 5736 5733 5731 5729 5727 5725 5722
5770 5771 5771 5772 5772 5772 5772 5772 5771 5770 5770 5769 5769 5768 5767 5767 5766 5766 5764 5763 5761 5760 5758 5756 5754 5752 5749 5747 5745 5742 5740 5738 5736 5734 5732 5730 5728 5726 5724 5722 5720 5718 5716 5714
5762 5763 5763 5764 5764 5764 5764 5763 5763 5762 5761 5761 5761 5760 5759 5759 5758 5757 5756 5754 5752 5751 5749 5747 5745 5742 5740 5738 5735 5733 5731 5729 5727 5725 5723 5721 5719 5717 5715 5713 5711 5709 5707 5705
5754 5755 5755 5756 5756 5756 5755 5755 5755 5754 5753 5753 5752 5752 5751 5751 5750 5748 5747 5746 5744 5742 5740 5738 5736 5734 5731 5729 5726 5724 5722 5720 5718 5716 5714 5712 5710 5708 5706 5704 5703 5701 5699 5697
5747 5747 5748 5748 5748 5747 5747 5747 5747 5746 5746 5745 5745 5744 5743 5742 5741 5740 5739 5737 5735 5733 5731 5729 5727 5725 5722 5720 5717 5715 5713 5711 5709 5707 5705 5703 5701 5699 5697 5696 5694 5693 5691 5688
5741 5741 5741 5740 5740 5740 5740 5739 5739 5739 5738 5737 5737 5736 5735 5734 5733 5732 5730 5729 5727 5725 5723 5721 5718 5716 5713 5711 5708 5706 5704 5701 5699 5697 5695 5694 5692 5691 5689 5687 5685 5684 5682 5680
5734 5734 5734 5733 5733 5733 5732 5732 5732 5731 5730 5730 5729 5728 5727 5726 5724 5723 5722 5720 5718 5716 5714 5712 5709 5707 5704 5702 5699 5697 5695 5692 5690 5688 5687 5685 5683 5682 5681 5679 5677 5675 5674 5672
5727 5727 5727 5727 5726 5726 5725 5725 5724 5723 5723 5722 5721 5719 5718 5718 5716 5715 5713 5712 5710 5708 5705 5703 5701 5698 5696 5693 5690 5688 5686 5684 5682 5680 5678 5677 5675 5673 5672 5671 5669 5667 5665 5664
5721 5721 5720 5720 5719 5719 5718 5717 5717 5716 5715 5714 5712 5711 5710 5709 5708 5707 5705 5704 5701 5699 5697 5695 5692 5690 5687 5684 5682 5680 5678 5676 5674 5672 5670 5669 5667 5665 5664 5662 5661 5659 5657 5655
5714 5714 5714 5713 5712 5712 5711 5710 5709 5708 5707 5706 5705 5704 5702 5701 5700 5698 5697 5695 5693 5691 5689 5687 5684 5682 5679 5677 5674 5672 5670 5668 5666 5664 5662 5661 5660 5658 5656 5655 5653 5651 5649 5647
5708 5707 5706 5706 5705 5704 5703 5702 5701 5700 5699 5698 5697 5696 5695 5693 5692 5690 5689 5687 5685 5683 5681 5679 5677 5674 5672 5670 5667 5665 5663 5661 5659 5657 5656 5654 5653 5651 5649 5647 5645 5643 5641 5639